Regional Weather Roundup
Issued by NWS

Home | Current Version | Previous Version | Text Only | Print | Product List | Glossary Off
Versions: 1 2 3 4 5 6 7 8 9 10 11 12 13 14 15 16 17 18 19 20 21 22 23 24 25 26 27 28 29 30 31 32 33 34 35 36 37 38 39 40 41 42 43 44 45 46 47 48 49 50

000
ASUS43 KIND 020759
RWRIN

WEATHER ROUNDUP FOR INDIANA
NATIONAL WEATHER SERVICE INDIANAPOLIS IN
400 AM EDT THU JUL 02 2015

NOTE: "FAIR" INDICATES FEW OR NO CLOUDS BELOW 12,000 FEET WITH NO
SIGNIFICANT WEATHER AND/OR OBSTRUCTIONS TO VISIBILITY.

* - STATION DOES NOT REPORT WEATHER SUCH AS PRECIPITATION OR FOG.

+ - STATION NOT QUALITY CONTROLLED BY THE NATIONAL WEATHER SERVICE.
    USE DATA WITH CAUTION...ESPECIALLY DEWPOINT AND RELATIVE
    HUMIDITY OBSERVATIONS.

INZ001>003-010>013-019-020-020900-
NORTHWEST INDIANA

CITY           SKY/WX    TMP DP  RH WIND       PRES   REMARKS
RENSSELAER +   CLOUDY    57  55  94 N6        29.96S

$$

LMZ046-743>745-020900-
SOUTHERN LAKE MICHIGAN

STATION/POSITION TIME  TEMP    WIND        PRES    WAVE
                       AIR SEA DIR/SP/G            HT
                 (UTC) (F)     (DEG/KT/KT) (MB)    (FT)
BURNS HARBOR     0700   58     350/  9/ 12 1015.6F
MICHIGAN CITY    0700   59      30/ 11/ 12   N/A
5NW MICH CITY    0700   60 64   70/ 10/ 12   N/A     4

$$

INZ004-005-014>016-021>024-020900-
NORTH CENTRAL INDIANA

CITY           SKY/WX    TMP DP  RH WIND       PRES   REMARKS
GOSHEN         CLOUDY    56  53  90 N6        29.96F
PERU/GRISSOM   CLOUDY    58  54  86 NE8       29.94F
SOUTH BEND     MOCLDY    56  53  90 N5        29.98S

$$

INZ006>009-017-018-025>027-020900-
NORTHEAST INDIANA

CITY           SKY/WX    TMP DP  RH WIND       PRES   REMARKS
ANGOLA *+        N/A     55  43  62 N3        29.96F
FORT WAYNE     CLOUDY    59  55  87 N5        29.95F

$$

INZ028-029-035-036-043>045-051>053-020900-
WEST CENTRAL INDIANA

CITY           SKY/WX    TMP DP  RH WIND       PRES   REMARKS
CRAWFORDSVL +  MOCLDY    58  49  72 NE7       29.91F
GREENCASTLE +  CLOUDY    61  52  72 NE8       29.90F
LAFAYETTE      CLOUDY    58  53  84 NE6       29.93F
TERRE HAUTE    CLOUDY    64  55  72 N12       29.88F

$$

INZ030>032-037>040-046>048-054>057-064-065-020900-
CENTRAL INDIANA

CITY           SKY/WX    TMP DP  RH WIND       PRES   REMARKS
GREENWOOD *+   PTCLDY    64  55  72 NE10      29.90F
INDIANAPOLIS   CLOUDY    63  54  72 NE10      29.88F
-EAGLE CREEK   CLOUDY    62  54  74 NE8       29.90F
KOKOMO *+      CLOUDY    59  54  82 NE6       29.95S
MT COMFORT *+  PTCLDY    61  61 100 NE7       29.92F
SHELBYVILLE    PTCLDY    66  61  84 NE9       29.89F

$$

INZ033-034-041-042-049-050-058-059-020900-
EAST CENTRAL INDIANA

CITY           SKY/WX    TMP DP  RH WIND       PRES   REMARKS
MUNCIE         MOCLDY    62  56  80 NE5       29.93F

$$

INZ060-061-067>069-081>083-085>088-020900-
SOUTHWEST INDIANA

CITY           SKY/WX    TMP DP  RH WIND       PRES   REMARKS
EVANSVILLE     LGT RAIN  73  70  90 SW8       29.87S
HUNTINGBURG *+ CLOUDY    72  68  88 S5        29.87S

$$

INZ062-063-066-070>080-084-089>092-020900-
SOUTH CENTRAL AND SOUTHEAST INDIANA

CITY           SKY/WX    TMP DP  RH WIND       PRES   REMARKS
BLOOMINGTON    CLOUDY    70  68  93 NE5       29.86F
MADISON *+     CLOUDY    70  66  88 CALM      29.89F
SEYMOUR +      CLOUDY    72  70  94 CALM      29.87F

$$



USA.gov is the U.S. government's official web portal to all federal, state and local government web resources and services.